Location: ??
(31.9467°N, 34.8903°E)
Time: 01:37:08
(UTC+00:00)

Cosmos 2297 Rocket - Pass Details

Date: 29 October 2020
Orbit: 838 x 845 km, 71.0° (Epoch: 25 November)

Event Time Altitude Azimuth Distance (km) Brightness Sun altitude
Rises 15:53:03 0° 341° (NNW) 3,406 5.5 -13.3°
Reaches altitude 10° 15:55:31 10° 344° (NNW) 2,467 4.7 -13.8°
Maximum altitude 16:01:11 75° 69° (ENE) 873 2.1 -15.0°
Drops below altitude 10° 16:06:48 10° 155° (SSE) 2,452 4.4 -16.2°
Sets 16:09:14 0° 157° (SSE) 3,382 5.2 -16.7°
